Regional Weather Roundup
Issued by NWS Spokane, WA

Current Version | Previous Version | Text Only | Print | Product List | Glossary On
Versions: 1 2 3 4 5 6 7 8 9 10 11 12 13 14 15 16 17 18 19 20 21 22 23 24 25 26 27 28 29 30 31 32 33 34 35 36 37 38 39 40 41 42 43 44 45 46 47 48 49 50
000
NZUS01 KOTX 180110
RWROTX
EASTERN WASHINGTON/NORTHERN IDAHO ROUNDUP
NATIONAL WEATHER SERVICE, SPOKANE WA
600 PM PDT THU APR 17 2014

Note: "fair" indicated few or no clouds below 12,000 feet with no
significant weather and/or obstructions to visibility.

...NORTHEAST WASHINGTON AND NORTHERN IDAHO PANHANDLE...

CITY           SKY/WX    TMP DP  RH WIND       PRES   REMARKS
SPOKANE INTL   LGT RAIN  48  45  89 SW10      29.76F
SPOKANE DOWNTO LGT RAIN  50  46  86 S7        29.77F
COEUR D ALENE  CLOUDY    48  45  87 SE5       29.77F
DEER PARK      LGT RAIN  49  47  93 SE8       29.75F
SANDPOINT      DRIZZLE   46  46 100 S5        29.76F

...SOUTHEAST WASHINGTON AND SOUTHERN IDAHO PANHANDLE...

CITY           SKY/WX    TMP DP  RH WIND       PRES   REMARKS
WALLA WALLA    LGT RAIN  52  50  93 S8        29.83S FOG
PULLMAN/MOSCOW LGT RAIN  47  44  90 W9        29.81S
LEWISTON       LGT RAIN  53  46  77 SE3       29.79S
LOWELL           N/A     55  48  77 CALM      29.75R

...COLUMBIA BASIN...

CITY           SKY/WX    TMP DP  RH WIND       PRES   REMARKS
EPHRATA        CLOUDY    55  48  77 S14       29.73F
MOSES LAKE     CLOUDY    54  49  83 S15       29.74F
TRI CITIES     CLOUDY    55  50  83 S10       29.80F
HERMISTON      LGT RAIN  54  51  90 S7        29.81S
PENDLETON      LGT RAIN  50  48  93 SE8       29.81F FOG

...EAST SLOPES CASCADES...

CITY           SKY/WX    TMP DP  RH WIND       PRES   REMARKS
THE DALLES     CLOUDY    56  44  64 NW16G23   29.81R
YAKIMA         CLOUDY    61  42  49 NW12G23   29.72S
ELLENSBURG     LGT RAIN  53  47  79 S3        29.73S
WENATCHEE      CLOUDY    56  47  71 SE7       29.72F
OMAK           CLOUDY    56  42  59 S12       29.71S

...SOUTHERN BRITISH COLUMBIA...

CITY           SKY/WX    TMP DP  RH WIND       PRES   REMARKS
PENTICTON      CLOUDY    52  45  76 N9        29.66F
CRANBROOK      CLOUDY    50  36  57 S13G20    29.71S

...WESTERN MONTANA...

CITY           SKY/WX    TMP DP  RH WIND       PRES   REMARKS
MISSOULA       CLOUDY    51  41  68 NW14      29.77S

...NEIGHBORING CITIES...

CITY           SKY/WX    TMP DP  RH WIND       PRES   REMARKS
SEATTLE        RAIN      50  48  93 S12G17    29.77F FOG
CALGARY        CLOUDY    41  36  81 NE9       29.68F



USA.gov is the U.S. government's official web portal to all federal, state and local government web resources and services.